Overview Statistics Trail Chart Weather Telemetry Raw packets
 

This is the latest recevied weather packets stored in our database for station/object OK1VOF-13. If no packets are shown the sender has not sent any weather packets the latest 10 day(s).

<< 48 49 50 51 52 53 54 >>
Time Temp. Humidity Pressure Rain* Wind** Luminosity Snow
1787952004 21.67° C 74% 1013.9 hPa 0 mm - - -
1787951705 22.22° C 74% 1014.1 hPa 0 mm - - -
1787950510 22.22° C 76% 1015.1 hPa 0 mm - - -
1787950211 22.22° C 76% 1015.4 hPa 0 mm - - -
1787949314 22.78° C 72% 1016 hPa 0 mm - - -
1787948717 23.33° C 67% 1016.1 hPa 0 mm - - -
1787948664 23.89° C 66% 1016.2 hPa 0 mm - - -
1787948412 23.89° C 66% 1016.2 hPa 0 mm - - -
1787947820 23.89° C 64% 1016.5 hPa 0 mm - - -
1787946918 25° C 60% 1016.9 hPa 0 mm - - -
1787946629 25.56° C 58% 1016.9 hPa 0 mm - - -
1787946021 26.11° C 54% 1016.4 hPa 0 mm - - -
1787945722 26.11° C 51% 1016.4 hPa 0 mm - - -
1787945430 26.67° C 48% 1016.5 hPa 0 mm - - -
1787944832 26.67° C 40% 1015.8 hPa 0 mm - - -
1787944534 26.67° C 40% 1015.5 hPa 0 mm - - -
1787944235 26.67° C 40% 1015.4 hPa 0 mm - - -
1787943637 27.22° C 39% 1015.4 hPa 0 mm - - -
1787943491 27.22° C 39% 1015.3 hPa 0 mm - - -
1787943338 27.22° C 39% 1015.3 hPa 0 mm - - -
1787943040 27.22° C 39% 1015.4 hPa 0 mm - - -
1787942442 27.78° C 38% 1015.2 hPa 0 mm - - -
1787942143 27.78° C 38% 1015.1 hPa 0 mm - - -
1787941247 28.33° C 37% 1014.7 hPa 0 mm - - -
1787940942 28.33° C 37% 1014.5 hPa 0 mm - - -

* Rain latest hour (hover to see other rain measurements)
** Current wind speed in m/s (hover to see current wind gust speed)